This demonstration page uses our WeatherBlox Daily Observations layout. Learn more.

Left ArrowRight Arrow

47.50024, -111.30081

Hourly Observations for January 22, 2016

Temp ( °F °C ) Dew Point ( °F °C ) Humidity (%) Winds ( mph kmh ) Pressure ( in mb ) Visibility ( mi km ) Precip ( " mm )
12:53 am 00:53 Clear 39 3.9 30 -1.1 70 70 SSW 23 37 30.05 1018 10 16 0.00 0.00
1:53 am 01:53 Clear 40 4.4 30 -1.1 68 68 S 24 39 30.03 1017 10 16 0.00 0.00
2:53 am 02:53 Clear 41 5 30 -1.1 65 65 SSW 17 28 30.03 1017 10 16 0.00 0.00
3:53 am 03:53 Clear 40 4.4 29 -1.7 65 65 S 17 28 30.03 1017 10 16 0.00 0.00
4:53 am 04:53 Clear 39 3.9 30 -1.1 70 70 SSW 21 33 30.01 1016 10 16 0.00 0.00
5:53 am 05:53 Clear 40 4.4 29 -1.7 65 65 SSW 16 26 29.99 1016 10 16 0.00 0.00
6:53 am 06:53 Clear 40 4.4 29 -1.7 65 65 S 18 30 29.98 1015 10 16 0.00 0.00
7:53 am 07:53 Clear 36 2.2 28 -2.2 73 73 SSW 8 13 29.98 1015 10 16 0.00 0.00
8:53 am 08:53 Sunny 40 4.4 28 -2.2 63 63 S 18 30 29.94 1014 10 16 0.00 0.00
9:53 am 09:53 Sunny 39 3.9 29 -1.7 67 67 SW 9 15 29.95 1014 10 16 0.00 0.00
10:53 am 10:53 Sunny 43 6.1 30 -1.1 60 60 SSW 20 31 29.91 1013 10 16 0.00 0.00
11:53 am 11:53 Sunny 43 6.1 30 -1.1 60 60 SW 20 31 29.88 1012 10 16 0.00 0.00
12:53 pm 12:53 Sunny 44 6.7 30 -1.1 58 58 SW 13 20 29.86 1011 10 16 0.00 0.00
1:53 pm 13:53 Sunny 46 7.8 31 -0.6 56 56 SW 14 22 29.83 1010 10 16 0.00 0.00
2:53 pm 14:53 Sunny 46 7.8 29 -1.7 51 51 SW 21 33 29.81 1010 10 16 0.00 0.00
3:53 pm 15:53 Sunny 46 7.8 29 -1.7 51 51 SW 16 26 29.83 1010 10 16 0.00 0.00
4:53 pm 16:53 Sunny 45 7.2 28 -2.2 52 52 SW 25 41 29.82 1010 10 16 0.00 0.00
5:53 pm 17:53 Clear 44 6.7 28 -2.2 53 53 SW 25 41 29.84 1011 10 16 0.00 0.00
6:53 pm 18:53 Clear 43 6.1 28 -2.2 56 56 SW 25 41 29.85 1011 10 16 0.00 0.00
7:53 pm 19:53 Clear 42 5.6 28 -2.2 58 58 SW 20 31 29.88 1012 10 16 0.00 0.00
8:53 pm 20:53 Clear 42 5.6 28 -2.2 58 58 SW 23 37 29.85 1011 10 16 0.00 0.00
9:53 pm 21:53 Clear 40 4.4 28 -2.2 63 63 SW 12 19 29.88 1012 10 16 0.00 0.00
10:53 pm 22:53 Clear 40 4.4 28 -2.2 63 63 SSW 20 31 29.86 1011 10 16 0.00 0.00
11:53 pm 23:53 Clear 38 3.3 28 -2.2 68 68 SW 16 26 29.86 1011 10 16 0.00 0.00

Powered by AerisWeather